Regional Weather Roundup
Issued by NWS

Home | Current Version | Previous Version | Graphics & Text | Print | Product List | Glossary On
Versions: 1 2 3 4 5 6 7 8 9 10 11 12 13 14 15 16 17 18 19 20 21 22 23 24 25 26 27 28 29 30 31 32 33 34 35 36 37 38 39 40 41 42 43 44 45 46 47 48 49 50
000
ASUS43 KDTX 211910
RWRMI
MICHIGAN HOURLY REGIONAL WEATHER ROUNDUP
NATIONAL WEATHER SERVICE DETROIT/PONTIAC MI
300 PM EDT SAT OCT 21 2017

NOTE: "FAIR" INDICATES FEW OR NO CLOUDS BELOW 12,000 FEET WITH NO
SIGNIFICANT WEATHER AND/OR OBSTRUCTION TO VISIBILITY.

MIZ047>049-052>055-059>063-066>070-074>076-081>083-212000-
SOUTHEAST LOWER MICHIGAN

CITY           SKY/WX    TMP DP  RH WIND       PRES   REMARKS
ADRIAN         PTSUNNY   73  48  41 SW13G21   30.17F
ALMA           MOSUNNY   75  40  27 S13G24    30.11S
ANN ARBOR      MOSUNNY   73  54  51 S9        30.16F
BAD AXE        PTSUNNY   72  50  44 S12       30.14F
CARO           MOSUNNY   75  45  34 S13       30.12F
DETROIT CITY   MOSUNNY   71  54  54 S9        30.19S
DETROIT        PTSUNNY   73  56  54 S10       30.19F
FLINT          MOSUNNY   73  50  44 S14       30.14F
GROSSE ILE     MOSUNNY   66  55  66 SE7       30.19S
HILLSDALE      PTSUNNY   73  46  38 S12G20    30.16F
HOWELL         MOSUNNY   73  50  43 S10       30.15F

CITY           SKY/WX    TMP DP  RH WIND       PRES   REMARKS
JACKSON        PTSUNNY   73  45  36 S14       30.14F
LAMBERTVILLE   CLOUDY    76  52  42 S5        30.18S
LANSING        MOSUNNY   74  43  32 S12       30.12F
LAPEER         FAIR      73  51  46 S10G20    30.16F
MASON          MOSUNNY   75  45  33 S8        30.13F
MONROE         CLOUDY    74  55  50 S10       30.17F
MT. CLEMENS    PTSUNNY   71  58  62 S12       30.17S
PONTIAC        PTSUNNY   72  53  51 S10       30.16F
PORT HOPE        N/A     73  49  42 VRB7      30.12F
PORT HURON     CLOUDY    73  54  49 S13       30.19S
TRI CITIES     CLOUDY    75  47  36 S13       30.11F
MIDLAND        FAIR      77  44  31 S13       30.09F
TROY           MOSUNNY   73  53  49 S3        30.19F
SAGINAW HB     MOSUNNY   73  43  33 S15G21    30.11S
$$
MIZ043>046-050>051-056>058-064>065-071>073-077>080-212000-
SOUTHWEST LOWER MICHIGAN

CITY           SKY/WX    TMP DP  RH WIND       PRES   REMARKS
BATTLE CREEK   MOSUNNY   74  43  32 S16G26    30.13S
BENTON HARBOR  MOSUNNY   74  53  48 S12G18    30.07F
BIG RAPIDS     PTSUNNY   73  38  28 S16G22    30.07S
COLDWATER      MOSUNNY   74  43  32 S12       30.14S
FREMONT        FAIR      72  51  48 S16G24    30.06F
HOLLAND        PTSUNNY   74  50  42 S15       30.08F
GRAND RAPIDS   PTSUNNY   74  46  36 S12       30.10F
IONIA          FAIR      75  41  29 S15       30.10S
KALAMAZOO      MOSUNNY   74  45  35 S16       30.12F
LUDINGTON      MOSUNNY   73  55  53 S14G22    30.01F
MARSHALL       MOSUNNY   73  47  39 S13       30.13F
MOUNT PLEASANT PTSUNNY   74  40  29 SW10      30.10S
MUSKEGON       CLOUDY    73  51  46 S20G32    30.06F
SOUTH HAVEN    MOSUNNY   75  49  41 S13G18    30.08F
$$
MIZ016>042-212000-
NORTHERN LOWER MICHIGAN

CITY           SKY/WX    TMP DP  RH WIND       PRES   REMARKS
ALPENA         CLOUDY    74  44  34 S8        30.07F
BEAVER ISLAND  MOSUNNY   69  46  43 S8        30.00S
BELLAIRE       CLOUDY    72  40  31 S6        30.02S
CADILLAC       MOSUNNY   74  38  26 S16       30.05F
CHARLEVOIX     CLOUDY    72  44  37 S10G16    30.03F
FRANKFORT      MOSUNNY   73  52  49 S12G17    30.00F
GAYLORD        CLOUDY    70  38  31 S14       30.05F
GRAYLING       PTSUNNY   71  41  33 S9        30.08S
HARBOR SPRINGS MOSUNNY   69  43  39 CALM      30.01S
HOUGHTON LAKE  MOSUNNY   71  46  40 S10       30.09F
MANISTEE       MOSUNNY   73  54  51 S14G23    30.00F
OSCODA         CLOUDY    70  49  47 S12G20    30.10F
PELLSTON       CLOUDY    73  41  31 SE8       30.02F
ROGERS CITY    CLOUDY    72  47  41 S3        30.05F
TRAVERSE CITY  PTSUNNY   75  41  29 S8G16     29.99F
$$
MIZ007>008-015-212000-
EASTERN UPPER MICHIGAN

CITY           SKY/WX    TMP DP  RH WIND       PRES   REMARKS
KINROSS        MOSUNNY   69  51  52 SE8       30.03S
MACKINAC ISLAN CLOUDY    72  37  28 CALM      30.02S
NEWBERRY       CLOUDY    65  50  58 S20G28    29.98F
S. S. MARIE    CLOUDY    66  50  56 SE10      30.02S
MUNISING         N/A     69  54  58 S20G32    29.87F
$$
MIZ004>006-011>014-085-212000-
CENTRAL UPPER MICHIGAN

CITY           SKY/WX    TMP DP  RH WIND       PRES   REMARKS
MANISTIQUE     CLOUDY    62  55  77 S9        29.98S
ESCANABA       SUNNY     63  55  75 S17G24    29.91F
SAWYER-GWINN   SUNNY     72  54  53 S17G26    29.86F
$$
MIZ001>003-009>011-084-212000-
WESTERN UPPER MICHIGAN

CITY           SKY/WX    TMP DP  RH WIND       PRES   REMARKS
IRON MOUNTAIN  PTSUNNY   72  52  49 S14       29.86R
HOUGHTON       CLOUDY    71  52  50 S10       29.78S
COPPER HARBOR    N/A     67  50  54 SW10G24   29.78S
IRONWOOD       CLOUDY    63  56  78 S14G24    29.74F
$$

ABBREVIATIONS USED IN REMARKS
   TC - TEMPERATURE IN CELSIUS
  WCI - WIND CHILL INDEX
   HX - HEAT INDEX
  VSB - VISIBILITY




USA.gov is the U.S. government's official web portal to all federal, state and local government web resources and services.